Regional Weather Roundup
Issued by NWS

Home | Current Version | Previous Version | Graphics & Text | Print | Product List | Glossary On
Versions: 1 2 3 4 5 6 7 8 9 10 11 12 13 14 15 16 17 18 19 20 21 22 23 24 25 26 27 28 29 30 31 32 33 34 35 36 37 38 39 40 41 42 43 44 45 46 47 48 49 50
000
ASUS43 KLOT 221600
RWRIL

ILLINOIS REGIONAL WEATHER ROUNDUP
NATIONAL WEATHER SERVICE CHICAGO/ROMEOVILLE IL
1100 AM CDT MON SEP 22 2014

NOTE: "FAIR" INDICATES FEW OR NO CLOUDS BELOW 12,000 FEET WITH NO
SIGNIFICANT WEATHER AND/OR OBSTRUCTIONS TO VISIBILITY.

* THESE STATIONS ARE NOT UNDER NWS QUALITY CONTROL. THEY ALSO MAY NOT
  REPORT WEATHER SUCH AS PRECIPITATION OR FOG.

ILZ001-002-007-009-015-016-024-221700-
NORTHWEST ILLINOIS

CITY           SKY/WX    TMP DP  RH WIND       PRES   REMARKS
MOLINE         SUNNY     59  44  57 CALM      30.33S
STERLING*      SUNNY     63  41  45 S5        30.32S
$$

ILZ003-004-008-010-011-017-018-221700-
NORTH CENTRAL ILLINOIS

CITY           SKY/WX    TMP DP  RH WIND       PRES   REMARKS
ROCKFORD       SUNNY     59  43  55 W6        30.33S
$$

ILZ005-006-012>014-019>023-221700-
NORTHEAST ILLINOIS

CITY           SKY/WX    TMP DP  RH WIND       PRES   REMARKS
CHICAGO-OHARE  MOSUNNY   54  42  64 CALM      30.29S
CHICAGO-MIDWAY MOSUNNY   61  47  59 NE5       30.29S
AURORA         SUNNY     59  42  53 VRB5      30.31R
WAUKEGAN       SUNNY     57  41  55 NW5       30.28S
DUPAGE AIRPORT SUNNY     59  42  53 VRB3      30.30R
WHEELING       SUNNY     60  40  47 CALM      30.31R
NORTHERLY ISL    N/A     57  45  64 N5          N/A
$$

LMZ740>746-221700-
SOUTHERN LAKE MICHIGAN

STATION/POSITION SKY/WX   TEMP    WIND        PRES    VSBY  WAVE
                          AIR SEA DIR/SP/G                  HT/PER
                          (F)     (DEG/KT/KT) (MB)    (MI)  (FT/S)
SOUTHERN BUOY              54 62  310/  8/ 12 1025.3R         4/ 6
WAUKEGAN HARBOR            56     170/  2/  5   N/A
HARRISON CRIB              53     340/ 10/ 12   N/A
BURNHAM HARBOR             57     330/  4/  9   N/A
CALUMET HARBOR             56     360/  8/  9 1024.5R
MICHIGAN CITY              57     270/  2/  3   N/A
MICHIGAN CITY 6N           56 64  350/ 10/ 14   N/A           5/ 7
ST. JOSEPH                 55 65  360/  8/ 12   N/A           4/ 6
$$

ILZ025>027-034>036-040-047-049-050-058-095>099-221700-
WEST-CENTRAL ILLINOIS

CITY           SKY/WX    TMP DP  RH WIND       PRES   REMARKS
QUINCY         SUNNY     64  45  49 N5        30.33S
MACOMB*        SUNNY     61  45  56 NW6       30.35S
$$

ILZ028>032-037-038-041>044-048-051>054-059>061-221700-
CENTRAL ILLINOIS

CITY           SKY/WX    TMP DP  RH WIND       PRES   REMARKS
DECATUR        SUNNY     62  47  57 VRB6      30.31S
PEORIA         SUNNY     62  46  55 N6        30.32S
SPRINGFIELD    SUNNY     64  49  57 VRB5      30.32S
TAYLORVILLE    NOT AVBL
$$

ILZ033-039-045-046-055>057-062-063-221700-
EAST-CENTRAL ILLINOIS

CITY           SKY/WX    TMP DP  RH WIND       PRES   REMARKS
CHAMPAIGN      MOSUNNY   59  47  64 NW5       30.30S
MATTOON        SUNNY     61  47  59 NE6       30.29S
$$

ILZ079-100>102-221700-
SOUTHWEST ILLINOIS

CITY           SKY/WX    TMP DP  RH WIND       PRES   REMARKS
CAHOKIA*       SUNNY     66  49  54 VRB3      30.31R
$$

ILZ064>066-069>071-074>076-080>082-084>086-088>090-092>094-221700-
SOUTH-CENTRAL ILLINOIS

CITY           SKY/WX    TMP DP  RH WIND       PRES   REMARKS
CARBONDALE     MOSUNNY   65  49  56 NE8       30.28S
MARION         MOSUNNY   64  50  59 N12       30.29F
MT. VERNON     SUNNY     63  48  59 NE7       30.30S
$$

ILZ067-068-072-073-078-083-087-091-221700-
SOUTHEAST ILLINOIS

CITY           SKY/WX    TMP DP  RH WIND       PRES   REMARKS
LAWRENCEVILLE  MOSUNNY   63  49  60 VRB7      30.28F
$$

ABBREVIATIONS USED IN REMARKS
   TC - TEMPERATURE IN CELSIUS
  WCI - WIND CHILL INDEX
   HX - HEAT INDEX
  VSB - VISIBILITY
$$



USA.gov is the U.S. government's official web portal to all federal, state and local government web resources and services.